Temp
78 77 76 76 77 77 76 76 74 73 72 72 74 74 77 78 78 77 76 77 76 75 76 76 77 77 75 75 75 74 74 76 70 73 75 77 79 80 84 83 84 82 82
77 78 76 76 77 76 76 77 74 71 71 75 75 76 77 77 77 76 77 77 76 75 76 76 76 81 76 75 74 74 74 74 72 70 73 75 76 79 79 81 84 88 82
75 76 74 75 76 76 77 77 76 76 75 76 76 76 77 77 77 76 76 76 77 76 75 76 79 79 77 73 74 71 73 73 72 71 71 73 75 78 76 77 78 79 86
71 72 72 73 74 73 75 76 77 76 76 76 76 76 76 74 73 74 75 76 75 75 75 77 75 76 77 74 73 73 73 72 71 70 70 72 71 75 74 73 75 78 78
71 71 70 72 73 72 73 73 73 75 75 76 75 73 70 67 66 68 73 74 72 71 71 74 71 72 71 70 73 71 72 71 71 70 69 69 70 71 71 72 71 73 77
70 69 72 71 71 70 70 71 73 72 73 73 70 68 65 64 64 64 67 71 72 71 70 71 69 68 68 69 70 70 69 71 70 69 69 69 69 70 71 71 70 70 69
70 71 70 68 67 67 69 69 70 71 71 69 66 63 58 58 60 61 66 70 71 68 70 70 67 66 64 65 68 71 70 69 68 69 69 69 69 70 70 68 69 69 69
70 68 68 68 67 67 67 68 70 69 68 65 64 60 59 60 59 60 65 70 65 66 66 64 61 60 61 62 68 69 69 70 66 70 67 68 69 70 68 69 70 70 71
68 67 67 67 66 66 67 67 65 63 62 62 62 62 60 60 58 60 67 67 64 61 63 64 63 61 60 61 65 64 64 65 69 67 67 66 66 66 67 70 66 64 64
65 66 68 68 67 66 65 66 65 62 60 59 60 61 59 60 57 58 62 68 62 62 62 61 61 59 57 57 61 61 60 61 62 67 72 72 70 70 68 66 65 63 62
63 65 66 67 66 66 66 68 65 61 60 59 59 60 60 60 59 57 58 59 62 64 64 62 62 57 55 55 56 60 59 59 63 65 67 68 68 69 70 70 69 67 63
62 62 64 66 68 66 65 64 65 61 58 57 57 59 60 61 58 56 56 58 61 62 61 62 61 55 55 57 62 59 61 64 66 65 64 64 64 65 65 65 63 64 64
61 61 61 57 58 63 64 64 63 63 63 62 62 59 59 58 57 55 56 57 58 57 58 59 58 56 58 61 59 59 60 61 60 59 58 58 60 62 63 64 64 64 62
59 59 56 53 54 52 57 56 56 55 59 62 60 60 58 52 51 50 51 51 54 54 53 55 61 60 59 59 61 59 59 58 56 55 53 55 58 60 58 60 59 60 55
59 58 57 54 49 47 47 46 49 47 46 57 54 52 54 50 46 44 43 44 44 46 48 54 55 54 55 56 56 56 54 55 54 50 50 50 51 54 54 55 56 54 53
58 58 58 55 54 51 47 45 47 46 46 45 46 50 46 46 45 44 43 43 44 46 51 53 52 52 51 51 51 52 53 53 52 52 52 52 51 51 52 51 52 48 48
59 58 59 58 58 55 54 53 50 50 46 44 44 44 45 45 45 43 42 43 48 51 53 53 51 51 50 49 49 49 48 49 52 52 52 52 53 52 50 50 50 49 48
55 58 56 57 60 58 57 56 53 52 51 49 46 47 45 45 45 44 43 48 52 52 51 50 49 49 49 48 48 47 48 48 47 47 46 47 47 47 46 46 47 46 46
57 60 59 55 58 60 58 57 53 54 52 49 46 46 46 45 44 44 43 49 51 50 49 49 49 48 48 48 47 47 47 47 46 45 45 44 45 44 43 43 44 45 45
55 61 60 56 56 56 56 58 55 55 52 47 48 51 50 49 51 52 52 51 52 50 49 48 48 48 48 47 46 46 46 45 44 43 43 42 42 41 41 42 42 41 42
54 54 60 55 54 56 57 56 55 57 54 53 52 52 50 51 50 51 54 54 52 50 49 49 48 47 47 46 46 45 44 44 43 42 41 40 40 39 39 39 40 40 40
55 54 54 55 56 55 54 55 56 57 56 53 52 48 48 53 54 54 54 53 53 52 50 49 48 48 48 46 45 45 44 42 41 41 39 39 38 38 38 38 38 40 42
55 55 54 54 55 56 55 56 55 55 55 52 52 52 51 52 53 54 54 54 53 52 52 51 50 48 48 48 47 46 44 42 41 41 39 38 37 36 36 39 41 41 41
55 55 54 54 53 53 53 54 55 53 55 55 53 52 52 52 53 54 54 54 53 53 52 51 51 50 49 49 48 46 45 44 43 42 40 38 36 37 38 41 42 42 41
54 55 54 52 53 53 53 53 53 54 55 55 54 53 52 52 53 53 52 53 53 53 53 52 52 53 52 51 49 45 39 41 42 39 40 39 37 37 37 37 41 42 42
58 56 55 55 54 55 53 53 54 53 53 55 54 53 54 53 53 53 52 52 51 52 52 51 52 53 52 52 50 43 35 36 39 36 39 36 35 35 36 37 41 42 41
MSLP
1016.67 1017.11 1017.62 1018.09 1018.25 1018.36 1018.60 1018.91 1019.15 1019.18 1019.51 1019.33 1019.23 1019.47 1019.61 1019.65 1019.64 1020.11 1020.49 1020.71 1020.93 1021.11 1021.18 1021.31 1021.35 1021.24 1021.23 1021.25 1021.09 1020.83 1020.83 1020.61 1021.13 1020.65 1019.84 1019.04 1018.63 1018.14 1017.66 1017.29 1017.15 1016.96 1016.60
1016.37 1016.78 1017.29 1017.80 1018.05 1018.29 1018.51 1018.63 1018.98 1019.11 1019.11 1019.03 1019.15 1019.49 1019.45 1019.51 1019.69 1020.01 1020.42 1020.73 1020.99 1021.28 1021.29 1021.13 1021.11 1020.93 1020.97 1021.04 1020.85 1020.90 1020.98 1021.02 1021.15 1020.75 1019.89 1019.07 1018.69 1018.31 1018.11 1017.84 1017.54 1017.18 1016.75
1016.08 1016.49 1017.03 1017.34 1017.74 1017.87 1018.15 1018.39 1018.66 1018.90 1019.09 1019.06 1019.18 1019.33 1019.46 1019.47 1019.67 1020.00 1020.26 1020.51 1020.76 1020.90 1021.17 1021.13 1020.89 1020.77 1020.85 1020.91 1020.98 1021.27 1021.16 1021.05 1020.85 1020.69 1020.27 1019.53 1019.17 1018.79 1018.66 1018.29 1018.00 1017.35 1016.76
1015.97 1017.07 1017.33 1017.36 1017.46 1017.93 1018.01 1018.23 1018.29 1018.49 1018.76 1019.03 1019.31 1019.37 1019.47 1019.76 1019.97 1020.07 1020.15 1020.35 1020.68 1020.98 1020.97 1020.86 1020.94 1020.71 1020.92 1020.85 1021.01 1021.15 1021.05 1020.91 1020.86 1020.84 1020.58 1020.20 1019.89 1019.41 1019.16 1018.93 1018.21 1017.89 1017.40
1015.99 1016.90 1017.64 1017.60 1017.81 1018.04 1018.19 1018.34 1018.68 1018.34 1018.47 1018.77 1019.13 1019.66 1020.06 1020.45 1020.91 1020.75 1020.23 1020.27 1020.75 1020.91 1021.24 1021.61 1021.49 1021.13 1020.79 1020.89 1020.99 1021.05 1020.96 1020.95 1020.91 1020.92 1020.82 1020.56 1020.27 1019.83 1019.59 1019.46 1019.19 1018.52 1017.71
1016.50 1017.66 1017.85 1018.01 1018.07 1018.37 1018.59 1018.51 1018.62 1018.64 1019.07 1019.17 1019.96 1020.51 1020.97 1021.18 1021.17 1020.86 1020.49 1020.59 1020.83 1020.59 1020.71 1021.73 1022.06 1021.53 1021.47 1021.34 1021.14 1020.70 1020.91 1021.07 1021.10 1021.20 1021.15 1021.01 1020.60 1020.27 1019.98 1019.76 1019.44 1018.95 1018.47
1017.13 1017.35 1017.52 1017.88 1018.32 1018.71 1018.85 1018.74 1018.67 1019.07 1019.57 1019.78 1020.67 1021.36 1021.57 1021.53 1021.17 1020.71 1020.35 1020.63 1020.87 1020.98 1021.62 1022.37 1022.36 1022.15 1022.12 1021.80 1021.17 1020.85 1020.93 1020.88 1021.16 1021.32 1021.26 1020.98 1020.58 1020.28 1020.11 1019.82 1019.58 1019.39 1019.10
1016.85 1017.25 1017.38 1018.15 1018.64 1018.88 1019.04 1018.99 1018.87 1018.99 1019.68 1020.25 1020.90 1021.37 1021.53 1021.77 1021.28 1020.53 1020.32 1020.59 1021.32 1022.07 1022.39 1022.57 1022.61 1022.53 1022.51 1022.11 1021.86 1021.67 1021.61 1021.42 1021.45 1021.23 1021.37 1020.88 1020.46 1020.03 1019.99 1019.84 1019.61 1019.46 1019.09
1016.97 1017.31 1017.69 1018.42 1018.95 1019.05 1019.21 1019.46 1019.59 1019.37 1020.47 1021.16 1020.99 1020.92 1021.71 1021.82 1021.22 1020.38 1020.49 1021.00 1021.64 1022.27 1022.55 1022.51 1022.68 1022.85 1022.73 1022.43 1022.33 1022.39 1022.21 1021.86 1021.31 1021.03 1020.68 1020.53 1020.30 1020.27 1020.05 1019.78 1019.91 1019.81 1019.80
1017.25 1017.60 1018.02 1018.64 1018.99 1019.29 1019.48 1019.74 1020.36 1020.41 1020.67 1021.13 1021.63 1021.99 1022.19 1021.89 1021.75 1021.17 1020.91 1021.40 1022.15 1022.63 1023.01 1023.23 1023.20 1023.31 1023.24 1022.99 1022.91 1022.87 1022.80 1022.50 1021.86 1021.10 1020.64 1020.67 1020.70 1020.58 1020.46 1020.43 1020.47 1020.63 1020.66
1018.02 1018.47 1018.60 1018.89 1019.22 1019.35 1019.58 1019.86 1020.65 1021.11 1021.37 1021.83 1022.14 1022.47 1022.24 1022.51 1022.56 1022.33 1021.98 1021.98 1022.18 1022.85 1023.33 1023.68 1023.59 1023.59 1023.59 1023.54 1023.19 1023.06 1023.23 1022.81 1022.23 1021.95 1021.85 1021.72 1021.69 1021.54 1021.30 1021.21 1021.24 1021.45 1021.50
1018.72 1019.10 1019.22 1019.23 1019.51 1019.92 1019.99 1020.30 1020.73 1021.05 1021.53 1022.00 1022.21 1022.37 1022.50 1022.90 1023.01 1023.14 1023.00 1022.83 1022.84 1023.01 1023.59 1023.55 1023.57 1023.52 1023.42 1023.29 1023.21 1022.97 1022.93 1022.75 1022.92 1022.86 1022.80 1022.89 1022.70 1022.46 1022.45 1022.25 1022.14 1021.92 1021.81
1019.35 1019.65 1019.93 1020.31 1020.51 1020.51 1020.69 1020.89 1021.14 1021.32 1021.76 1022.08 1022.36 1022.65 1022.98 1023.05 1023.16 1023.30 1023.55 1023.36 1023.43 1023.67 1023.79 1023.65 1023.46 1023.53 1023.41 1023.48 1023.77 1023.56 1023.78 1023.93 1024.07 1023.88 1023.96 1024.05 1023.88 1023.57 1023.20 1022.85 1022.76 1022.50 1022.19
1020.12 1020.31 1020.95 1021.21 1021.65 1021.75 1021.89 1022.05 1022.14 1022.53 1022.71 1022.67 1022.58 1022.95 1023.47 1023.67 1023.80 1023.93 1024.44 1024.20 1023.99 1024.13 1024.06 1024.12 1023.57 1023.67 1023.82 1024.31 1024.28 1024.62 1024.58 1024.61 1024.96 1024.91 1025.03 1024.73 1024.36 1023.96 1024.11 1024.08 1023.91 1023.59 1023.22
1020.83 1021.10 1021.67 1021.99 1022.60 1022.92 1023.28 1023.69 1023.95 1024.20 1024.10 1023.57 1023.22 1023.36 1023.91 1024.59 1024.81 1024.81 1025.20 1025.15 1024.90 1024.75 1024.83 1024.62 1024.32 1024.45 1024.79 1024.94 1025.15 1025.30 1025.59 1025.66 1025.53 1025.46 1025.49 1025.23 1025.10 1025.10 1025.10 1024.94 1024.93 1024.82 1024.76
1021.17 1021.31 1021.72 1022.15 1022.68 1023.41 1023.72 1024.51 1024.86 1024.93 1024.30 1023.91 1023.73 1023.60 1024.08 1024.62 1025.15 1025.04 1024.93 1024.83 1025.16 1025.23 1024.80 1025.03 1025.53 1025.58 1025.66 1026.01 1026.14 1026.11 1026.25 1026.35 1026.23 1026.13 1026.12 1026.14 1025.96 1025.88 1025.91 1025.87 1025.80 1025.76 1025.65
1021.03 1021.26 1021.48 1021.97 1022.27 1022.87 1023.12 1024.02 1024.49 1025.04 1024.43 1024.66 1024.47 1024.45 1024.32 1024.76 1025.15 1025.18 1025.21 1024.87 1024.39 1024.55 1025.32 1025.65 1025.89 1026.45 1026.65 1026.73 1027.04 1027.09 1027.18 1027.17 1026.95 1026.92 1026.93 1027.14 1026.99 1026.71 1026.59 1026.78 1026.60 1026.53 1026.33
1020.91 1020.75 1021.19 1021.75 1021.79 1022.16 1022.45 1022.76 1023.33 1024.50 1024.03 1024.65 1024.74 1024.83 1024.87 1024.99 1024.97 1025.37 1025.31 1024.77 1024.92 1025.04 1025.63 1026.05 1026.61 1026.84 1026.99 1027.52 1027.79 1027.82 1027.62 1027.59 1027.80 1027.91 1027.70 1027.92 1028.16 1028.05 1027.78 1027.87 1027.35 1027.40 1027.11
1020.81 1020.58 1020.85 1020.93 1021.17 1021.62 1021.95 1022.42 1022.79 1023.74 1024.35 1024.61 1024.99 1024.86 1024.77 1024.72 1025.01 1025.11 1025.37 1025.34 1025.44 1025.60 1025.97 1026.59 1026.79 1027.01 1027.35 1028.07 1028.25 1028.11 1028.12 1028.12 1028.49 1028.54 1028.61 1028.77 1028.89 1028.59 1028.47 1028.36 1028.17 1027.96 1027.87
1020.91 1020.90 1021.05 1021.16 1021.17 1021.48 1021.67 1021.97 1022.40 1023.41 1024.19 1024.47 1024.93 1025.01 1024.95 1024.99 1024.96 1025.05 1025.17 1025.37 1025.42 1025.91 1026.41 1026.76 1026.99 1027.26 1027.79 1028.50 1028.70 1028.45 1028.35 1028.66 1028.97 1029.11 1029.32 1029.31 1029.27 1029.13 1029.10 1029.01 1028.76 1028.53 1028.42
1020.95 1021.16 1021.41 1021.74 1021.67 1021.61 1021.90 1021.99 1022.21 1022.82 1023.45 1023.98 1024.51 1024.69 1024.77 1025.14 1025.35 1025.37 1025.37 1025.59 1025.76 1026.28 1026.66 1027.17 1027.57 1027.75 1027.88 1028.33 1028.68 1028.76 1028.96 1029.24 1029.35 1029.54 1029.80 1029.78 1029.61 1029.50 1029.35 1029.11 1029.06 1028.99 1028.68
1021.12 1021.36 1021.63 1021.82 1021.83 1021.94 1021.81 1021.85 1022.36 1022.83 1023.19 1023.67 1024.12 1024.36 1024.17 1024.35 1024.85 1025.08 1025.31 1025.51 1025.81 1026.25 1026.64 1027.01 1027.63 1027.68 1027.72 1028.05 1028.37 1028.75 1029.05 1029.42 1029.39 1029.64 1029.83 1029.89 1029.93 1029.72 1029.33 1029.33 1029.10 1028.89 1028.63
1021.15 1021.41 1021.75 1021.82 1021.83 1021.87 1022.02 1022.06 1022.45 1022.75 1022.94 1023.21 1023.54 1023.81 1023.89 1023.91 1024.19 1024.59 1024.82 1025.30 1025.65 1025.97 1026.35 1026.76 1026.97 1027.43 1027.44 1027.51 1027.67 1028.19 1028.71 1029.00 1028.97 1029.07 1029.41 1029.64 1029.64 1029.53 1029.29 1029.15 1028.99 1028.67 1028.16
1020.95 1021.14 1021.45 1021.63 1021.78 1022.06 1022.14 1022.22 1022.29 1022.38 1022.45 1022.70 1023.10 1023.32 1023.41 1023.60 1023.77 1024.13 1024.48 1024.85 1025.36 1025.62 1025.98 1026.21 1026.44 1026.78 1026.99 1027.24 1027.47 1027.87 1028.07 1028.37 1028.49 1028.54 1028.73 1029.18 1029.41 1029.37 1029.20 1028.85 1028.51 1028.21 1027.81
1020.75 1020.84 1021.03 1021.38 1021.57 1021.70 1021.81 1021.93 1022.05 1022.13 1022.27 1022.38 1022.68 1022.91 1022.97 1023.06 1023.32 1023.71 1024.13 1024.41 1024.85 1025.20 1025.47 1025.64 1025.79 1025.96 1026.36 1026.83 1027.18 1027.45 1027.58 1027.63 1027.85 1028.24 1028.49 1028.88 1028.94 1028.97 1028.91 1028.48 1028.11 1027.76 1027.41
1020.26 1020.47 1020.70 1020.86 1021.15 1021.25 1021.37 1021.48 1021.72 1021.85 1022.06 1022.01 1022.09 1022.22 1022.43 1022.80 1023.04 1023.17 1023.54 1023.80 1024.22 1024.46 1024.67 1024.92 1025.07 1025.32 1025.67 1025.92 1026.14 1026.48 1026.88 1027.11 1027.57 1027.72 1028.15 1028.56 1028.68 1028.56 1028.20 1027.97 1027.78 1027.37 1026.96
Wind_Speed
10 9 7 6 6 5 5 6 7 5 6 7 4 3 6 5 4 3 4 3 2 3 3 2 5 3 2 1 2 2 3 2 2 4 4 3 6 7 8 7 4 7 5
8 10 8 7 7 7 6 6 7 6 5 4 4 5 5 5 4 4 4 1 3 4 5 1 4 3 3 1 2 4 3 1 1 3 3 4 3 5 5 5 6 6 5
7 9 8 7 8 8 8 7 7 7 6 6 6 4 4 4 3 4 5 3 2 4 4 4 5 1 2 1 2 3 2 3 2 2 4 2 2 3 4 4 5 6 7
5 4 5 6 6 2 3 3 7 7 7 5 5 5 5 2 5 3 1 1 3 4 5 6 5 2 3 1 2 2 2 4 3 3 3 4 2 4 2 4 8 7 8
6 6 3 4 1 3 5 4 6 5 7 6 5 3 8 7 5 4 2 6 7 5 6 6 7 9 8 5 2 3 3 2 2 3 3 2 2 4 5 4 3 6 8
10 5 6 4 4 2 1 4 1 5 6 3 9 9 7 5 5 5 3 5 4 5 8 5 5 11 9 11 10 5 2 2 2 1 2 3 4 2 3 3 4 5 5
9 7 6 6 6 5 4 2 4 6 7 9 10 9 7 4 10 5 1 4 5 4 2 6 5 6 8 6 7 7 9 11 3 2 3 3 4 3 3 4 4 3 3
9 8 8 7 6 6 7 3 3 9 9 9 7 7 7 6 10 7 2 8 10 8 8 7 6 6 7 6 6 7 7 7 7 4 4 6 5 5 2 1 2 4 3
7 7 7 6 5 6 6 9 6 12 10 5 7 11 8 8 14 14 9 8 9 8 7 7 7 6 9 11 7 7 7 6 8 8 9 10 9 8 5 4 5 4 4
7 6 6 5 5 7 6 7 6 7 8 7 8 8 8 10 16 14 10 6 9 6 6 6 11 7 8 10 6 5 6 5 8 11 13 10 9 9 10 7 4 5 4
6 4 5 5 6 7 8 9 8 7 8 8 9 6 9 7 10 14 10 6 6 5 5 3 3 7 8 8 5 5 3 6 6 5 6 7 6 8 9 10 11 7 6
7 6 6 6 6 5 9 7 7 7 6 5 6 6 6 6 9 10 11 11 8 7 4 1 2 7 12 13 11 15 15 9 7 7 8 9 8 8 7 7 7 7 4
8 8 9 10 8 6 5 5 4 3 5 6 5 5 5 4 5 12 9 10 8 5 2 3 5 10 11 10 15 15 12 7 7 8 8 7 7 7 8 10 9 10 7
7 8 8 9 8 9 7 7 6 5 4 2 3 4 5 4 5 5 5 5 7 6 8 5 8 9 11 7 8 9 7 7 7 6 4 4 6 9 9 8 8 10 5
4 5 7 7 8 8 8 5 5 5 3 2 4 4 5 3 2 4 4 4 4 4 5 3 5 6 6 6 7 7 5 6 7 4 5 4 5 6 5 5 7 6 6
5 5 4 5 6 4 6 5 9 6 8 11 11 6 4 8 4 6 6 6 6 6 3 5 4 4 5 5 5 5 5 7 5 5 5 6 5 6 7 5 5 5 6
5 5 4 5 5 6 6 5 5 3 9 11 11 11 10 7 6 7 7 9 5 6 4 5 5 5 5 5 5 5 4 5 6 6 7 7 7 7 7 7 7 7 7
2 5 5 5 5 5 5 7 6 4 4 3 6 5 6 5 5 5 7 5 5 5 5 5 5 5 5 5 4 4 4 5 5 5 5 6 6 6 6 6 7 8 8
3 2 3 5 5 6 5 5 5 5 3 4 2 3 1 1 3 6 4 2 4 5 5 5 5 5 5 5 3 3 4 4 5 5 5 5 6 5 5 6 7 10 9
3 8 7 1 3 3 4 4 6 6 5 4 2 1 1 2 1 1 2 3 5 5 5 5 5 5 5 4 4 4 5 5 5 5 5 4 4 4 5 6 6 7 8
1 3 4 1 2 3 2 3 3 7 6 5 5 6 9 4 2 3 3 4 5 5 5 5 4 4 5 5 4 4 5 4 4 5 4 4 4 4 4 4 6 7 8
3 2 1 0 1 1 1 4 2 1 3 7 5 4 10 4 2 4 5 5 5 5 5 5 4 4 5 5 5 4 3 4 4 3 2 2 3 3 4 5 6 7 9
4 5 5 4 3 4 3 3 2 3 4 6 5 5 4 4 4 4 5 5 5 5 5 5 5 4 4 5 5 5 5 5 5 4 1 2 2 3 3 5 6 7 7
4 5 6 5 4 3 4 4 3 2 3 4 6 5 5 4 5 6 5 5 5 5 5 5 5 7 6 5 3 4 5 5 4 4 5 2 2 4 4 5 6 8 8
4 4 4 6 5 5 4 5 5 5 4 4 5 5 5 5 5 6 6 6 6 6 6 6 5 8 8 10 8 8 8 11 7 6 3 4 4 6 6 5 7 8 10
6 4 2 1 1 3 5 5 5 5 5 4 5 5 6 6 5 6 7 7 6 6 7 5 7 10 12 9 10 12 11 12 8 8 5 4 4 5 5 6 10 8 10
Wind_Direction
169 168 174 187 193 195 180 194 170 200 182 197 187 274 186 158 163 164 182 208 187 247 276 284 275 266 287 8 23 7 358 51 98 291 231 290 343 340 325 312 299 300 323
165 168 176 182 187 185 202 200 158 192 217 192 218 208 176 185 185 170 194 254 204 254 236 73 296 322 356 63 31 15 18 324 68 308 306 327 359 10 326 10 359 9 344
165 161 167 181 187 193 197 198 177 186 196 207 206 200 182 193 185 206 205 217 230 257 243 234 253 206 191 117 7 18 1 354 2 19 304 324 323 356 337 350 350 348 354
89 15 164 207 214 137 190 229 191 182 181 202 209 205 203 77 49 46 60 272 351 319 305 269 266 58 89 72 66 3 10 358 6 7 338 331 356 330 325 349 355 356 345
115 56 165 220 209 220 88 37 334 199 182 197 207 48 84 65 38 323 129 127 65 36 47 16 37 35 61 69 91 15 16 14 343 344 335 322 324 348 8 334 337 328 329
119 168 201 220 267 251 96 250 280 359 282 89 74 88 80 67 350 360 336 80 105 82 352 45 21 33 18 8 359 356 272 278 298 344 330 335 317 317 331 340 336 350 351
164 153 94 80 75 62 72 88 160 132 77 85 89 90 77 15 358 339 254 174 175 133 151 97 61 33 21 0 345 27 19 27 333 42 341 314 307 350 343 339 357 341 294
120 118 109 96 90 76 70 49 95 106 99 106 92 87 73 28 356 347 138 106 91 84 105 104 91 52 20 15 19 27 25 32 17 11 333 294 289 307 317 302 289 310 308
108 108 115 125 128 114 100 78 54 91 90 102 103 73 63 32 13 33 96 93 94 81 82 85 83 58 27 27 50 32 7 351 342 338 317 339 61 64 64 42 17 27 353
80 89 83 113 152 140 141 120 96 93 98 82 73 91 78 57 32 41 57 93 94 91 66 56 50 58 38 40 48 30 12 338 340 349 30 43 30 25 25 41 15 33 1
83 101 96 102 88 88 109 108 115 108 114 117 106 83 81 67 46 48 46 66 108 110 83 45 34 38 33 18 36 45 322 307 343 45 41 32 24 23 31 31 33 35 23
86 79 74 77 101 95 94 102 116 121 113 116 114 98 85 83 67 59 65 65 69 97 103 52 343 43 49 42 44 43 36 37 39 42 41 32 27 21 25 17 15 9 18
92 82 67 53 36 37 97 101 95 103 135 145 141 129 117 92 64 38 37 62 92 83 67 358 29 78 73 64 56 54 47 39 36 43 37 24 13 6 15 14 13 8 11
73 81 77 72 65 47 51 39 50 36 14 206 159 120 102 62 43 34 18 26 34 44 18 3 91 88 81 72 66 53 51 50 53 47 33 20 19 27 23 11 7 6 2
56 75 86 84 78 78 60 43 54 53 345 20 81 90 108 82 95 90 56 27 9 9 346 42 54 50 49 52 54 58 42 43 41 31 26 21 27 31 13 14 20 6 9
143 127 124 121 121 104 102 81 62 51 29 55 70 94 59 89 103 62 37 19 348 326 79 83 65 60 68 59 53 49 47 44 33 29 26 36 33 25 17 10 10 12 6
189 182 159 157 153 147 142 137 121 28 62 60 64 72 79 117 63 40 23 357 64 43 73 77 82 64 57 54 48 44 45 22 25 28 36 26 22 22 24 14 10 8 1
116 116 146 177 163 157 161 147 132 180 130 88 43 81 92 81 47 13 1 9 66 61 84 76 78 75 71 66 56 40 36 39 33 36 41 35 29 21 18 10 7 359 351
39 4 28 137 162 168 161 156 137 129 129 129 106 30 112 67 347 317 83 78 104 88 89 83 87 81 78 68 58 40 55 64 55 48 35 40 23 19 13 4 356 351 340
35 17 16 89 85 105 142 150 156 149 164 154 151 209 154 55 84 355 77 93 103 92 99 98 98 101 96 82 50 44 57 61 56 53 40 36 22 19 8 354 350 348 344
144 109 86 41 91 71 46 74 80 148 177 146 163 174 171 168 233 208 139 95 99 98 107 113 106 105 112 96 68 58 56 64 67 56 38 19 15 9 353 356 355 348 341
189 182 178 312 255 4 82 113 138 176 150 148 154 184 170 156 164 139 142 138 129 135 136 131 144 145 139 139 126 104 100 113 97 83 55 14 356 354 14 355 334 335 334
201 172 185 209 219 240 227 200 197 207 178 158 162 165 179 176 174 168 147 138 155 153 159 166 166 157 160 145 156 166 171 163 153 132 81 6 4 354 326 314 318 310 312
238 192 180 197 214 214 198 201 211 234 234 170 175 174 179 191 182 176 164 162 167 169 168 175 168 163 160 159 138 120 129 143 150 142 128 152 281 294 285 286 287 298 299
245 238 197 188 199 208 213 210 203 219 237 226 164 191 199 194 183 170 171 171 171 172 179 181 180 183 168 159 152 162 168 160 156 157 157 199 241 268 268 278 285 294 298
212 226 208 242 244 217 211 202 202 205 214 217 229 195 178 190 202 182 184 185 184 185 187 190 188 171 166 177 172 175 171 175 173 181 178 198 236 254 258 273 282 283 295